[[{"header":{"parameterUnit":"m.s-1","parameterCategory":1,"la1":30.2991,"la2":30.254,"lo1":-89.0895,"lo2":-89.0444,"dy":0.0017,"dx":0.0017,"nx":28,"ny":28,"refTime":"2025-06-19T09:00:00:Z","depth":0,"parameterNumber":2,"parameterNumberName":"U-component_of_WINDS"},"data":[0,0,0,0,0,0,0,0,0,0,0,0,0,0,0,0,0,0,0,0,0,0,0,0,0,0,0,0,0,0,0,0,0,0,0,0,0,0,0,0,0,0,0,0,0,0,0,0,0,0,0,0,0,0,0,0,0,0,1.0139,1.0139,0,1.0103,1.0102,1.0102,1.0043,1.0042,1.0041,1.004,1.0002,1.0002,1.0002,0,0,0,0,0,0,0,0,0,0,0,0,0,1.0156,1.0156,1.0139,1.0139,1.0138,1.0103,1.0102,1.0102,1.0043,1.0042,1.004,1.0039,1.0002,1.0002,1.0002,0,0,0,0,0,0,0,0,0,0,0,0,0,1.0137,1.0156,1.0139,1.0105,1.0101,1.0103,1.0102,1.0101,1.0043,1.0042,1.004,1.0039,1.0002,1.0002,1.0002,1.0034,0,0,1.0002,1.0002,0,0,0,0,0,0,0,0,1.0138,1.0137,1.011,1.0107,1.0103,1.0076,1.0094,1.0079,1.0044,1.0065,1.004,1.0038,1.0028,1.0025,1.0022,1.0032,1.0031,1.0002,1.0002,1.0002,1.0002,0,0,0,0,0,0,0,1.014,1.0138,1.0125,1.011,1.0106,1.009,1.0086,1.0091,1.0056,1.0063,1.0059,1.0055,1.0025,1.0022,1.0021,1.003,1.0002,1.0002,1.0002,1.0002,1.0061,1.0063,0,0,0,0,0,0,1.0146,1.0139,1.0126,1.0124,1.0117,1.0091,1.0086,1.0086,1.0056,1.005,1.0057,1.0053,1.0023,1.0021,1.0019,1.0052,1.0002,1.0002,1.0002,1.0059,1.0061,1.0063,0,0,0,0,0,0,1.0147,1.0146,1.0127,1.013,1.0127,1.0093,1.0093,1.0086,1.0083,1.0051,1.0044,1.006,1.0022,1.0019,1.003,1.005,1.0002,1.0002,1.0058,1.006,1.0062,1.0121,0,0,0,0,0,0,1.0148,1.0146,1.0159,1.0131,1.0127,1.014,1.0094,1.0087,1.0083,1.0078,1.0052,1.0046,1.002,1.003,1.003,1.0049,1.0002,1.0056,1.0059,1.0062,1.0117,1.0125,1.0131,0,0,0,0,0,1.0149,1.0177,1.016,1.0159,1.0142,1.0141,1.0138,1.0108,1.0085,1.0097,1.0076,1.0047,1.0048,1.0032,1.0031,1.0051,1.0054,1.0058,1.0061,1.0113,1.0123,1.0131,0,0,0,0,0,0,1.0209,1.0173,1.0153,1.0174,1.0161,1.0131,1.0145,1.012,1.0113,1.0108,1.007,1.0065,1.008,1.0066,1.0049,1.0079,1.0047,1.005,1.0087,1.0096,1.0103,1.0105,1.0002,0,0,0,0,0,1.0225,1.0227,1.0196,1.0217,1.0211,1.018,1.0178,1.0155,1.014,1.0134,1.0114,1.01,1.0097,1.0096,1.0091,1.0115,1.0107,1.0128,1.0135,1.0141,1.0144,1.0153,1.0161,1.0075,1.0075,1.0075,0,0,1.0257,1.0238,1.0242,1.0229,1.0216,1.0218,1.0175,1.0181,1.0181,1.0135,1.0143,1.0128,1.011,1.0126,1.0132,1.0115,1.0166,1.0146,1.0151,1.0151,1.0157,1.0165,1.0173,1.0077,1.0077,1.0076,0,0,1.0317,1.0304,1.0319,1.0307,1.0287,1.0265,1.0269,1.0242,1.023,1.0238,1.0202,1.0203,1.0199,1.0186,1.018,1.0233,1.0205,1.0232,1.0271,1.0279,1.0286,1.0292,1.0308,1.0315,1.0236,1.0236,1.0236,0,1.036,1.0363,1.033,1.0336,1.033,1.0288,1.0302,1.0292,1.0272,1.0268,1.025,1.0242,1.0227,1.0239,1.0251,1.0248,1.0249,1.0235,1.0288,1.0293,1.0298,1.0313,1.032,1.0239,1.0239,1.0238,1.0238,0,1.0415,1.0418,1.0432,1.0413,1.0409,1.0419,1.0386,1.0386,1.0364,1.0343,1.035,1.033,1.032,1.0321,1.03,1.0329,1.0319,1.0295,1.0262,1.031,1.0324,1.0329,1.0244,1.0243,1.0242,1.0241,0,0,1.0513,1.0474,1.048,1.0469,1.0444,1.0445,1.0452,1.0442,1.0441,1.0429,1.0433,1.0429,1.0406,1.0398,1.0375,1.0383,1.0423,1.0357,1.0356,1.0368,1.0451,1.0467,1.0475,1.0405,1.0406,1.0407,1.0451,0,1.0566,1.0577,1.0546,1.0564,1.0564,1.0523,1.0529,1.0514,1.0495,1.0492,1.047,1.0467,1.0438,1.0433,1.0439,1.0417,1.0438,1.0413,1.0406,1.0407,1.0411,1.0482,1.0501,1.0544,1.0457,1.0458,1.0458,0,1.063,1.0619,1.0637,1.0608,1.0607,1.0614,1.06,1.0598,1.0579,1.0564,1.0555,1.0527,1.053,1.05,1.0503,1.0487,1.0482,1.047,1.0471,1.0468,1.0434,1.0479,1.0557,1.0563,1.0467,1.0466,1.0465,0,1.0696,1.0687,1.0695,1.0688,1.0656,1.066,1.0647,1.0626,1.0621,1.0609,1.0605,1.0594,1.0587,1.0579,1.0548,1.0529,1.0554,1.0522,1.0541,1.0541,1.0547,1.0547,1.0623,1.0547,1.0547,1.0547,1.0547,0,1.0757,1.0769,1.0724,1.073,1.0741,1.0705,1.0717,1.07,1.0681,1.0681,1.0646,1.0646,1.0607,1.0602,1.0578,1.0583,1.0581,1.0568,1.0561,1.0571,1.0572,1.0566,1.0561,1.0549,1.0548,1.0548,1.0548,0,1.0833,1.0804,1.081,1.0778,1.077,1.078,1.0752,1.0755,1.0733,1.0733,1.0731,1.0697,1.069,1.0658,1.0645,1.0628,1.064,1.0628,1.0647,1.0642,1.0662,1.066,1.0736,1.0743,1.0665,1.0666,1.0666,0,1.0873,1.0881,1.085,1.0847,1.0835,1.0832,1.0826,1.0791,1.0785,1.0763,1.0768,1.0758,1.0748,1.0738,1.0712,1.07,1.0686,1.0713,1.0684,1.0692,1.0684,1.0683,1.0682,1.0719,1.0721,1.0721,1.0722,0,1.0947,1.0932,1.0924,1.0912,1.0905,1.0894,1.088,1.088,1.084,1.0836,1.0828,1.0821,1.0805,1.0795,1.0778,1.0763,1.0735,1.0732,1.0735,1.0743,1.0753,1.0745,1.0662,1.073,1.0729,1.0728,1.0728,1.0728,1.1004,1.1009,1.0986,1.0979,1.0965,1.0952,1.0952,1.093,1.0923,1.0907,1.0887,1.0881,1.0859,1.0834,1.0821,1.0815,1.08,1.0806,1.0807,1.0808,1.0811,1.0755,1.0813,1.0812,1.0812,1.0812,1.0812,0,1.1074,1.1058,1.1051,1.1032,1.1026,1.1001,1.0983,1.0979,1.0975,1.0957,1.0948,1.0937,1.0927,1.0899,1.0885,1.0885,1.0872,1.0883,1.0881,1.0878,1.0827,1.0825,1.0893,1.0893,1.0893,1.0893,1.0893,1.0893,1.111,1.1114,1.1096,1.1093,1.1076,1.107,1.1062,1.1049,1.1034,1.1025,1.1015,1.0997,1.0975,1.0959,1.0947,1.0939,1.0934,1.0949,1.0937,1.089,1.0882,1.0874,1.0871,1.0949,1.0949,1.0987,1.0988,1.0988]},{"header":{"parameterUnit":"m.s-1","parameterCategory":1,"la1":30.2991,"la2":30.254,"lo1":-89.0895,"lo2":-89.0444,"dy":0.0017,"dx":0.0017,"nx":28,"ny":28,"refTime":"2025-06-19T09:00:00:Z","depth":0,"parameterNumber":3,"parameterNumberName":"V-component_of_WINDS"},"data":[0,0,0,0,0,0,0,0,0,0,0,0,0,0,0,0,0,0,0,0,0,0,0,0,0,0,0,0,0,0,0,0,0,0,0,0,0,0,0,0,0,0,0,0,0,0,0,0,0,0,0,0,0,0,0,0,0,0,4.7804,4.7804,0,4.7829,4.7829,4.783,4.7778,4.7777,4.7775,4.7773,4.7798,4.78,4.7802,0,0,0,0,0,0,0,0,0,0,0,0,0,4.7708,4.771,4.7804,4.7804,4.7805,4.7829,4.7829,4.783,4.7778,4.7776,4.7774,4.7772,4.7797,4.78,4.7802,0,0,0,0,0,0,0,0,0,0,0,0,0,4.7743,4.7711,4.7804,4.7782,4.778,4.7829,4.7829,4.783,4.7779,4.7776,4.7774,4.7772,4.7796,4.7799,4.7803,4.7873,0,0,4.7813,4.7814,0,0,0,0,0,0,0,0,4.7741,4.7747,4.7785,4.7784,4.7782,4.7798,4.7804,4.7844,4.778,4.7779,4.7773,4.777,4.78,4.7803,4.7813,4.7875,4.7876,4.7813,4.7815,4.7816,4.7817,0,0,0,0,0,0,0,4.7739,4.7745,4.7814,4.7785,4.7784,4.777,4.7772,4.7812,4.7803,4.7779,4.7776,4.7779,4.7798,4.781,4.7813,4.7876,4.7813,4.7816,4.7818,4.7819,4.7993,4.7995,0,0,0,0,0,0,4.7739,4.7744,4.7813,4.7815,4.7755,4.7773,4.7776,4.7795,4.7803,4.7801,4.7781,4.7777,4.7805,4.7809,4.7814,4.7894,4.7816,4.782,4.7821,4.799,4.7993,4.7996,0,0,0,0,0,0,4.7738,4.7746,4.7812,4.7778,4.7785,4.7778,4.78,4.7797,4.7808,4.7804,4.7802,4.7795,4.7803,4.7809,4.7858,4.7894,4.7821,4.7824,4.7987,4.7991,4.7995,4.8056,0,0,0,0,0,0,4.7735,4.7746,4.7774,4.7779,4.7787,4.7857,4.7802,4.7799,4.7814,4.7809,4.7816,4.7815,4.7802,4.7853,4.7861,4.7897,4.7827,4.7984,4.7989,4.7993,4.8051,4.8062,4.8071,0,0,0,0,0,4.7732,4.7791,4.7775,4.7784,4.7822,4.7859,4.7864,4.7848,4.7818,4.7844,4.7841,4.7815,4.7889,4.7859,4.7867,4.7905,4.7981,4.7987,4.7993,4.8047,4.806,4.8071,0,0,0,0,0,0,4.779,4.7791,4.7774,4.7837,4.7848,4.7851,4.7884,4.7863,4.7883,4.7877,4.7856,4.7858,4.791,4.7913,4.7879,4.7972,4.793,4.7938,4.7968,4.798,4.799,4.7987,4.7829,0,0,0,0,0,4.7811,4.7841,4.784,4.7896,4.7902,4.7893,4.7908,4.7894,4.7905,4.791,4.7911,4.7922,4.7947,4.7964,4.7988,4.8052,4.8051,4.8082,4.8092,4.81,4.8106,4.8137,4.8149,4.8015,4.8015,4.8015,0,0,4.7853,4.7857,4.7878,4.7907,4.7915,4.7945,4.7897,4.7933,4.7954,4.7915,4.796,4.7962,4.7972,4.8028,4.8053,4.8032,4.8143,4.8108,4.8114,4.8116,4.8144,4.8157,4.8168,4.8019,4.8019,4.8018,0,0,4.7944,4.7952,4.7997,4.8004,4.8016,4.8008,4.8019,4.8024,4.8023,4.8068,4.8038,4.8064,4.811,4.8117,4.8127,4.8218,4.8193,4.8227,4.8279,4.8308,4.8319,4.8328,4.8357,4.8369,4.8234,4.8234,4.8234,0,4.7994,4.804,4.8022,4.8059,4.8071,4.8037,4.8081,4.8089,4.8108,4.8116,4.8093,4.8146,4.8152,4.8207,4.8229,4.824,4.8249,4.8225,4.8319,4.8328,4.8336,4.8364,4.8375,4.8237,4.8237,4.8237,4.8236,0,4.81,4.8132,4.8167,4.8184,4.8201,4.8241,4.8227,4.8246,4.8231,4.8225,4.827,4.8275,4.8297,4.831,4.8296,4.8362,4.8349,4.8323,4.828,4.8353,4.8378,4.8389,4.8243,4.8241,4.824,4.8239,0,0,4.8229,4.8234,4.8247,4.8252,4.8261,4.8285,4.8323,4.8344,4.8359,4.8373,4.8402,4.844,4.8415,4.8426,4.8412,4.8439,4.8506,4.8409,4.8409,4.8424,4.8576,4.8593,4.8606,4.8491,4.8493,4.8495,4.8574,0,4.8316,4.838,4.8364,4.8427,4.8454,4.8421,4.8453,4.8461,4.8457,4.8479,4.8474,4.8499,4.8467,4.8472,4.8498,4.8493,4.8536,4.8487,4.8515,4.8517,4.8511,4.862,4.8639,4.8714,4.8584,4.8586,4.8587,0,4.8427,4.8443,4.8509,4.8509,4.852,4.855,4.8566,4.8588,4.8595,4.859,4.8602,4.8582,4.8617,4.8575,4.8622,4.8589,4.8599,4.8599,4.8601,4.8601,4.8554,4.862,4.8738,4.8748,4.8603,4.8602,4.8601,0,4.851,4.8549,4.8591,4.8598,4.8601,4.8622,4.8624,4.8629,4.8642,4.8656,4.8664,4.8683,4.8692,4.8706,4.8691,4.8663,4.8739,4.8697,4.8733,4.8734,4.8749,4.8747,4.8867,4.8761,4.8761,4.8761,4.876,0,4.8608,4.8648,4.8628,4.8654,4.8698,4.8678,4.8721,4.872,4.8724,4.8748,4.8722,4.8745,4.8725,4.8746,4.8735,4.8773,4.8778,4.8773,4.8769,4.8774,4.8774,4.8779,4.8772,4.8764,4.8763,4.8762,4.8762,0,4.8707,4.8696,4.8739,4.8738,4.8739,4.877,4.8769,4.8792,4.8785,4.8816,4.8822,4.8811,4.8834,4.8821,4.8845,4.8837,4.8886,4.8876,4.8883,4.8879,4.8914,4.891,4.9039,4.9053,4.8941,4.8942,4.8943,0,4.8769,4.8799,4.88,4.8813,4.8817,4.884,4.8852,4.8834,4.8848,4.8857,4.8878,4.8899,4.8914,4.8952,4.8946,4.8963,4.8952,4.8996,4.8954,4.8957,4.8948,4.8945,4.8947,4.9003,4.9005,4.9006,4.9007,0,4.8878,4.887,4.8889,4.8904,4.8919,4.8931,4.8941,4.8953,4.8935,4.8951,4.8974,4.8985,4.9009,4.9028,4.9043,4.9044,4.9021,4.902,4.9028,4.9032,4.9033,4.9029,4.8902,4.9016,4.9015,4.9015,4.9014,4.9014,4.8958,4.8981,4.8985,4.9005,4.901,4.9019,4.9039,4.9034,4.9053,4.907,4.9058,4.9084,4.9088,4.9105,4.9109,4.9128,4.911,4.9124,4.9126,4.9129,4.9132,4.9033,4.9131,4.9131,4.913,4.913,4.913,0,4.9063,4.9063,4.9082,4.9095,4.911,4.9088,4.9097,4.9111,4.9133,4.9139,4.9154,4.9178,4.9197,4.9192,4.9208,4.9224,4.9214,4.9229,4.9226,4.9226,4.9149,4.9138,4.9236,4.9236,4.9236,4.9236,4.9236,4.9236,4.9119,4.9156,4.9148,4.9186,4.9186,4.921,4.9217,4.9224,4.9228,4.9256,4.9271,4.9267,4.9268,4.9283,4.9299,4.9297,4.9302,4.932,4.9314,4.9242,4.9232,4.9221,4.9211,4.9322,4.9323,4.9388,4.9389,4.9389]}]]